IGO1607 VABB-VOMM

Flight info

Callsign IGO1607
Flight time N/A
Altitude 35000
Route VEVAK2A EPKOS Q9 OPAMO OPAMO2F
Aircraft A20N/M-SDE2E3FGHIRWXY/LB1

Departure

Time N/A
Airport Chhatrapati Shivaji Maharaj International Airport (VABB)

Arrival

Time 2026-05-01 08:43
Airport Chennai International Airport (VOMM)
Time Latitude Longitude Altitude Speed Heading
2026-05-01 07:23 16.58940 74.51087 35000 ft 468 kts 128°
2026-05-01 07:24 16.52873 74.59063 34998 ft 468 kts 128°
2026-05-01 07:24 16.48831 74.64373 34993 ft 468 kts 128°
2026-05-01 07:25 16.44782 74.69686 35005 ft 468 kts 128°
2026-05-01 07:25 16.40733 74.74995 35005 ft 468 kts 128°
2026-05-01 07:26 16.36677 74.80309 34996 ft 469 kts 128°
2026-05-01 07:26 16.32619 74.85623 34998 ft 468 kts 128°
2026-05-01 07:27 16.28563 74.90928 34993 ft 468 kts 128°
2026-05-01 07:27 16.24510 74.96227 34996 ft 468 kts 128°
2026-05-01 07:28 16.20454 75.01525 35001 ft 468 kts 129°
2026-05-01 07:28 16.16394 75.06825 35007 ft 468 kts 129°
2026-05-01 07:29 16.12334 75.12122 34996 ft 469 kts 129°
2026-05-01 07:29 16.08270 75.17420 34996 ft 469 kts 129°
2026-05-01 07:30 16.04206 75.22714 35007 ft 469 kts 129°
2026-05-01 07:30 16.00137 75.28010 35005 ft 468 kts 129°
2026-05-01 07:31 15.96073 75.33296 35003 ft 468 kts 129°
2026-05-01 07:32 15.85904 75.46504 35004 ft 468 kts 129°
2026-05-01 07:33 15.79828 75.54386 34998 ft 468 kts 129°
2026-05-01 07:33 15.73726 75.62294 35006 ft 468 kts 129°
2026-05-01 07:34 15.67615 75.70203 34996 ft 468 kts 129°
2026-05-01 07:35 15.63541 75.75472 34999 ft 468 kts 129°
2026-05-01 07:35 15.59467 75.80736 35003 ft 468 kts 129°
2026-05-01 07:36 15.55385 75.86008 35004 ft 468 kts 129°
2026-05-01 07:36 15.51304 75.91275 34999 ft 468 kts 129°
2026-05-01 07:37 15.45180 75.99171 34995 ft 468 kts 129°
2026-05-01 07:37 15.41103 76.04423 34997 ft 468 kts 129°
2026-05-01 07:38 15.37017 76.09684 35001 ft 468 kts 129°
2026-05-01 07:39 15.30893 76.17561 35007 ft 468 kts 129°
2026-05-01 07:39 15.24772 76.25427 35003 ft 468 kts 129°
2026-05-01 07:40 15.20687 76.30670 35005 ft 468 kts 129°
2026-05-01 07:40 15.16605 76.35907 35007 ft 468 kts 129°
2026-05-01 07:41 15.12517 76.41147 35004 ft 468 kts 129°
2026-05-01 07:42 15.06378 76.49008 35001 ft 468 kts 129°
2026-05-01 07:42 15.02280 76.54251 35003 ft 469 kts 129°
2026-05-01 07:43 14.98167 76.59510 35008 ft 471 kts 129°
2026-05-01 07:43 14.92026 76.67356 34993 ft 469 kts 129°
2026-05-01 07:44 14.83823 76.77824 34998 ft 468 kts 129°
2026-05-01 07:45 14.79737 76.83033 35003 ft 468 kts 129°
2026-05-01 07:45 14.75628 76.88268 34996 ft 468 kts 129°
2026-05-01 07:46 14.71532 76.93483 35004 ft 468 kts 129°
2026-05-01 07:47 14.65379 77.01310 34993 ft 468 kts 129°
2026-05-01 07:47 14.61286 77.06527 35003 ft 467 kts 128°
2026-05-01 07:48 14.56943 77.15388 34333 ft 459 kts 110°
2026-05-01 07:48 14.55821 77.18505 33659 ft 465 kts 110°
2026-05-01 07:48 14.54693 77.21651 33541 ft 470 kts 110°
2026-05-01 07:49 14.53550 77.24821 33749 ft 471 kts 110°
2026-05-01 07:49 14.51256 77.31150 34003 ft 470 kts 110°
2026-05-01 07:50 14.48960 77.37464 34001 ft 470 kts 110°
2026-05-01 07:50 14.45514 77.46917 34000 ft 470 kts 110°
2026-05-01 07:51 14.43209 77.53232 33999 ft 470 kts 110°
2026-05-01 07:52 14.39753 77.62689 33999 ft 469 kts 110°
2026-05-01 07:52 14.37447 77.68992 33999 ft 469 kts 111°
2026-05-01 07:53 14.33990 77.78428 33998 ft 469 kts 111°
2026-05-01 07:53 14.31678 77.84735 34000 ft 470 kts 111°
2026-05-01 07:55 14.25892 78.00486 34000 ft 470 kts 111°
2026-05-01 07:56 14.20113 78.16181 33997 ft 470 kts 111°
2026-05-01 07:57 14.16626 78.25636 34001 ft 471 kts 111°
2026-05-01 07:58 14.11971 78.38237 34001 ft 470 kts 111°
2026-05-01 07:59 14.07319 78.50806 34001 ft 469 kts 111°
2026-05-01 08:00 13.98913 78.68910 34002 ft 470 kts 121°
2026-05-01 08:01 13.93878 78.77489 32798 ft 467 kts 121°
2026-05-01 08:01 13.92194 78.80365 31871 ft 472 kts 121°
2026-05-01 08:01 13.90496 78.83266 30990 ft 474 kts 121°
2026-05-01 08:02 13.87090 78.89084 30056 ft 476 kts 121°
2026-05-01 08:03 13.81947 78.97863 30000 ft 477 kts 121°
2026-05-01 08:03 13.76804 79.06635 29999 ft 478 kts 121°
2026-05-01 08:04 13.73393 79.12448 29500 ft 468 kts 121°
2026-05-01 08:04 13.70053 79.18134 28253 ft 461 kts 121°
2026-05-01 08:05 13.66770 79.23722 27041 ft 452 kts 121°
2026-05-01 08:05 13.65149 79.26478 26458 ft 448 kts 121°
2026-05-01 08:05 13.63547 79.29202 25889 ft 443 kts 121°
2026-05-01 08:06 13.60392 79.34565 24743 ft 434 kts 121°
2026-05-01 08:06 13.57293 79.39829 23567 ft 426 kts 121°
2026-05-01 08:07 13.54248 79.44997 22378 ft 419 kts 121°
2026-05-01 08:07 13.51256 79.50072 21168 ft 412 kts 121°
2026-05-01 08:08 13.49782 79.52573 20588 ft 408 kts 121°
2026-05-01 08:08 13.46868 79.57511 19382 ft 400 kts 121°
2026-05-01 08:09 13.44028 79.62323 18183 ft 393 kts 121°
2026-05-01 08:09 13.42599 79.64702 17566 ft 390 kts 124°
2026-05-01 08:09 13.40844 79.66794 17073 ft 383 kts 140°
2026-05-01 08:10 13.36132 79.68566 16583 ft 356 kts 184°
2026-05-01 08:10 13.32054 79.66360 16152 ft 330 kts 235°
2026-05-01 08:11 13.31304 79.61986 15568 ft 315 kts 284°
2026-05-01 08:11 13.33352 79.58101 14753 ft 310 kts 307°
2026-05-01 08:12 13.35944 79.54581 13931 ft 306 kts 306°
2026-05-01 08:12 13.37186 79.52813 13525 ft 305 kts 305°
2026-05-01 08:12 13.39596 79.49263 12709 ft 301 kts 304°
2026-05-01 08:13 13.40397 79.48063 12434 ft 300 kts 304°
2026-05-01 08:13 13.41603 79.46323 12032 ft 298 kts 309°
2026-05-01 08:13 13.45059 79.44176 11218 ft 296 kts 352°
2026-05-01 08:14 13.47098 79.44271 10789 ft 295 kts 14°
2026-05-01 08:14 13.48937 79.45182 10371 ft 294 kts 38°
2026-05-01 08:14 13.50269 79.46750 9939 ft 293 kts 61°
2026-05-01 08:14 13.50884 79.48722 9519 ft 291 kts 85°
2026-05-01 08:15 13.50668 79.50767 9136 ft 288 kts 110°
2026-05-01 08:15 13.48811 79.54263 8989 ft 270 kts 122°
2026-05-01 08:15 13.47831 79.55878 8995 ft 264 kts 124°
2026-05-01 08:16 13.46686 79.57380 9000 ft 264 kts 130°
2026-05-01 08:16 13.45502 79.58834 9001 ft 265 kts 130°
2026-05-01 08:16 13.44322 79.60253 9001 ft 265 kts 131°
2026-05-01 08:16 13.43101 79.61700 8997 ft 265 kts 131°
2026-05-01 08:17 13.41902 79.63109 9001 ft 265 kts 131°
2026-05-01 08:17 13.40671 79.64552 9002 ft 265 kts 131°
2026-05-01 08:17 13.39454 79.65974 9001 ft 265 kts 131°
2026-05-01 08:17 13.38234 79.67396 9000 ft 265 kts 131°
2026-05-01 08:18 13.37027 79.68802 8898 ft 260 kts 131°
2026-05-01 08:18 13.34626 79.71597 8150 ft 260 kts 131°
2026-05-01 08:19 13.32295 79.74309 7490 ft 249 kts 131°
2026-05-01 08:19 13.31171 79.75618 7132 ft 246 kts 131°
2026-05-01 08:19 13.30038 79.76937 7010 ft 247 kts 131°
2026-05-01 08:19 13.28890 79.78273 6999 ft 247 kts 131°
2026-05-01 08:20 13.27777 79.79568 6994 ft 241 kts 131°
2026-05-01 08:20 13.26682 79.80841 6997 ft 236 kts 131°
2026-05-01 08:20 13.25608 79.82090 6871 ft 231 kts 131°
2026-05-01 08:20 13.24545 79.83326 6499 ft 231 kts 131°
2026-05-01 08:21 13.23478 79.84566 6130 ft 231 kts 131°
2026-05-01 08:21 13.22413 79.85802 6007 ft 232 kts 131°
2026-05-01 08:21 13.21349 79.87039 6003 ft 231 kts 131°
2026-05-01 08:21 13.20308 79.88250 5999 ft 221 kts 131°
2026-05-01 08:22 13.19310 79.89408 5987 ft 209 kts 131°
2026-05-01 08:22 13.18372 79.90497 5992 ft 200 kts 132°
2026-05-01 08:22 13.17453 79.91563 5998 ft 199 kts 132°
2026-05-01 08:22 13.16535 79.92630 5997 ft 199 kts 131°
2026-05-01 08:23 13.15617 79.93696 6000 ft 199 kts 131°
2026-05-01 08:23 13.14700 79.94761 6001 ft 199 kts 132°
2026-05-01 08:23 13.13784 79.95825 6001 ft 199 kts 132°
2026-05-01 08:23 13.12865 79.96891 6004 ft 199 kts 131°
2026-05-01 08:24 13.11949 79.97954 5998 ft 199 kts 131°
2026-05-01 08:24 13.11031 79.99020 5998 ft 199 kts 131°
2026-05-01 08:24 13.10115 80.00084 5998 ft 199 kts 131°
2026-05-01 08:24 13.09197 80.01147 6001 ft 199 kts 131°
2026-05-01 08:25 13.08292 80.02199 5921 ft 194 kts 131°
2026-05-01 08:25 13.07387 80.03231 5621 ft 196 kts 136°
2026-05-01 08:25 13.06434 80.04231 5314 ft 197 kts 128°
2026-05-01 08:25 13.05868 80.05494 5046 ft 195 kts 97°
2026-05-01 08:26 13.06019 80.06861 5012 ft 195 kts 73°
2026-05-01 08:26 13.06468 80.08178 5003 ft 196 kts 69°
2026-05-01 08:26 13.06964 80.09481 5000 ft 196 kts 68°
2026-05-01 08:26 13.07461 80.10785 5003 ft 197 kts 68°
2026-05-01 08:27 13.07952 80.12091 4996 ft 196 kts 69°
2026-05-01 08:27 13.08432 80.13381 4982 ft 186 kts 69°
2026-05-01 08:27 13.08874 80.14579 4998 ft 176 kts 69°
2026-05-01 08:27 13.09306 80.15751 5000 ft 175 kts 69°
2026-05-01 08:28 13.09591 80.16527 5001 ft 175 kts 69°
2026-05-01 08:32 13.09690 80.16795 5000 ft 175 kts 69°
2026-05-01 08:32 13.10119 80.17963 5000 ft 175 kts 69°
2026-05-01 08:32 13.10549 80.19134 5000 ft 175 kts 69°
2026-05-01 08:32 13.10978 80.20302 5000 ft 175 kts 69°
2026-05-01 08:33 13.11405 80.21468 5000 ft 174 kts 69°
2026-05-01 08:33 13.11832 80.22632 5001 ft 175 kts 69°
2026-05-01 08:33 13.12260 80.23802 5001 ft 175 kts 69°
2026-05-01 08:33 13.12688 80.24968 4985 ft 172 kts 69°
2026-05-01 08:34 13.13115 80.26117 4682 ft 169 kts 68°
2026-05-01 08:34 13.13543 80.27235 4289 ft 172 kts 68°
2026-05-01 08:34 13.13983 80.28373 3899 ft 172 kts 68°
2026-05-01 08:34 13.14424 80.29511 3537 ft 171 kts 68°
2026-05-01 08:35 13.14863 80.30643 3181 ft 170 kts 68°
2026-05-01 08:35 13.15298 80.31764 2782 ft 170 kts 68°
2026-05-01 08:35 13.15732 80.32888 2424 ft 169 kts 69°
2026-05-01 08:35 13.16024 80.34046 2316 ft 168 kts 84°
2026-05-01 08:36 13.15926 80.35232 2297 ft 168 kts 107°
2026-05-01 08:36 13.15381 80.36283 2304 ft 168 kts 131°
2026-05-01 08:36 13.14474 80.37018 2300 ft 167 kts 154°
2026-05-01 08:36 13.13368 80.37348 2303 ft 166 kts 172°
2026-05-01 08:37 13.12216 80.37472 2302 ft 166 kts 176°
2026-05-01 08:37 13.11062 80.37561 2304 ft 167 kts 176°
2026-05-01 08:37 13.09905 80.37650 2303 ft 167 kts 176°
2026-05-01 08:37 13.08749 80.37712 2292 ft 166 kts 182°
2026-05-01 08:38 13.07623 80.37478 2294 ft 166 kts 204°
2026-05-01 08:38 13.06689 80.36807 2303 ft 164 kts 229°
2026-05-01 08:38 13.06094 80.35815 2307 ft 164 kts 246°
2026-05-01 08:38 13.05667 80.34729 2304 ft 164 kts 250°
2026-05-01 08:39 13.05269 80.33628 2295 ft 165 kts 250°
2026-05-01 08:39 13.04871 80.32530 2300 ft 165 kts 250°
2026-05-01 08:39 13.04467 80.31430 2306 ft 164 kts 249°
2026-05-01 08:39 13.04072 80.30363 2283 ft 156 kts 249°
2026-05-01 08:40 13.03302 80.28303 2291 ft 153 kts 249°
2026-05-01 08:40 13.02927 80.27303 2036 ft 149 kts 249°
2026-05-01 08:40 13.02551 80.26303 1683 ft 151 kts 249°
2026-05-01 08:41 13.02173 80.25296 1519 ft 151 kts 249°
2026-05-01 08:41 13.01793 80.24287 1488 ft 153 kts 249°
2026-05-01 08:41 13.01396 80.23273 1355 ft 153 kts 250°
2026-05-01 08:41 13.00994 80.22266 1094 ft 152 kts 247°
2026-05-01 08:42 13.00614 80.21259 819 ft 151 kts 251°
2026-05-01 08:42 13.00282 80.20253 582 ft 151 kts 249°
2026-05-01 08:42 12.99906 80.19247 331 ft 151 kts 249°
2026-05-01 08:42 12.99526 80.18252 68 ft 150 kts 250°
2026-05-01 08:43 12.99225 80.17450 60 ft 85 kts 249°
2026-05-01 08:43 12.99135 80.17140 51 ft 0 kts 326°
2026-05-01 08:43 12.99138 80.17139 52 ft 2 kts 335°
2026-05-01 08:44 12.99153 80.17141 57 ft 2 kts 24°
2026-05-01 08:44 12.99160 80.17150 57 ft 4 kts 61°
2026-05-01 08:44 12.99155 80.17172 59 ft 0 kts 134°
2026-05-01 08:44 12.99151 80.17174 59 ft 1 kts 145°
2026-05-01 08:45 12.99149 80.17175 55 ft 0 kts 155°
2026-05-01 08:47 12.99148 80.17175 55 ft 3 kts 156°
2026-05-01 08:47 12.99110 80.17166 56 ft 13 kts 238°
2026-05-01 08:47 12.99207 80.16945 56 ft 36 kts 348°
2026-05-01 08:48 12.99297 80.17177 61 ft 77 kts 102°
2026-05-01 08:48 12.98977 80.17806 59 ft 0 kts 137°